1998-067IC

Last updated on May 19, 2016, 7:36 a.m. UTC

1 41482U 98067JC  16140.03345152  .00178558  00000-0  25099-2 0  9995
2 41482  51.6420 203.4686 0001256 264.2621 168.7448 15.55552663   242

Satellite is not in orbit.